CDT,Max TemperatureF,Mean TemperatureF,Min TemperatureF,Max Dew PointF,MeanDew PointF,Min DewpointF,Max Humidity, Mean Humidity, Min Humidity, Max Sea Level PressureIn, Mean Sea Level PressureIn, Min Sea Level PressureIn, Max VisibilityMiles, Mean VisibilityMiles, Min VisibilityMiles, Max Wind SpeedMPH, Mean Wind SpeedMPH, Max Gust SpeedMPH,PrecipitationIn, CloudCover, Events, WindDirDegrees
2012-10-1,71,58,46,48,44,39,93,65,35,29.92,29.88,29.83,10,10,10,15,3,21,0.00,0,,328
2012-10-2,71,58,44,50,43,34,94,68,27,29.97,29.92,29.87,10,9,0,8,3,,0.00,0,Fog,347
2012-10-3,73,57,41,48,43,37,100,67,27,29.96,29.92,29.87,10,9,2,9,2,,0.00,0,,132
2012-10-4,59,50,41,46,35,27,77,53,41,30.15,30.01,29.86,10,10,7,20,8,30,0.00,2,,271
2012-10-5,50,44,37,30,25,21,75,52,35,30.16,30.12,30.07,10,10,7,21,11,31,0.00,4,,296
2012-10-6,42,40,37,28,24,19,70,55,42,30.24,30.19,30.10,10,10,10,15,10,23,0.00,8,Rain,317
2012-10-7,51,40,30,27,20,12,80,48,22,30.22,30.12,29.98,10,10,10,14,3,21,0.00,2,,246
2012-10-8,62,50,37,36,26,18,61,42,26,29.97,29.82,29.68,10,10,10,16,7,30,0.00,4,Rain,207
2012-10-9,51,45,39,48,38,25,93,73,46,29.94,29.81,29.74,10,10,5,16,6,28,0.08,7,Rain,275
2012-10-10,51,42,32,30,25,19,80,53,30,30.12,30.04,29.94,10,10,10,15,8,21,0.00,2,,291
2012-10-11,51,43,35,32,25,14,57,44,27,30.38,30.08,29.86,10,10,10,16,9,25,0.00,2,,297
2012-10-12,51,37,23,32,22,14,93,57,22,30.47,30.36,30.13,10,10,3,10,3,17,0.03,0,Rain,156
2012-10-13,51,45,39,50,44,32,100,92,70,30.12,29.83,29.69,10,4,0,8,5,,0.29,8,Fog-Rain-Thunderstorm,136
2012-10-14,51,43,35,50,42,34,100,87,66,29.86,29.71,29.64,10,8,2,16,4,25,1.12,6,Rain,342
2012-10-15,59,46,32,41,35,32,100,74,36,29.96,29.90,29.84,10,10,7,8,1,,0.00,2,,313
2012-10-16,68,57,44,46,42,37,93,70,46,29.83,29.58,29.40,10,10,0,12,4,13,0.00,2,Fog-Rain,134
2012-10-17,60,50,41,50,43,36,100,76,47,29.40,29.31,29.27,10,8,0,13,3,20,0.00,4,Fog-Rain,233
2012-10-18,46,44,42,41,37,34,87,74,62,29.39,29.28,29.22,10,10,4,9,4,,0.00,8,Rain,254
2012-10-19,50,44,37,41,37,34,93,78,54,29.72,29.57,29.39,10,10,2,8,2,,0.00,6,Rain,336
2012-10-20,53,42,30,39,34,30,100,82,50,29.87,29.81,29.72,10,8,0,5,2,,0.00,2,Fog,290
2012-10-21,68,52,37,46,40,36,93,67,35,29.92,29.87,29.82,10,10,10,13,4,22,0.00,0,,152
2012-10-22,64,55,46,50,47,43,93,77,59,29.93,29.90,29.86,10,10,7,10,2,,0.00,7,Rain-Thunderstorm,91
2012-10-23,62,58,53,57,54,50,94,87,77,29.88,29.80,29.73,7,5,2,13,8,17,0.00,8,,130
2012-10-24,68,62,55,64,59,54,94,89,82,29.82,29.76,29.68,10,6,4,10,1,18,0.00,8,Rain-Thunderstorm,148
2012-10-25,53,45,37,52,40,28,94,88,70,30.14,29.79,29.56,10,9,3,24,9,36,0.41,8,Rain-Thunderstorm,311
2012-10-26,41,36,32,28,24,21,80,61,49,30.39,30.31,30.16,10,10,10,18,10,25,0.00,6,,294
2012-10-27,42,35,28,30,23,16,93,65,36,30.39,30.35,30.31,10,10,5,8,2,,0.00,1,,327
2012-10-28,46,36,26,30,24,18,93,69,32,30.40,30.35,30.30,10,10,5,6,0,,0.00,0,,173
2012-10-29,46,36,26,28,25,19,93,71,34,30.38,30.32,30.24,10,10,5,7,1,,0.00,3,,115
2012-10-30,48,37,26,30,24,18,93,63,34,30.24,30.11,30.02,10,10,10,15,5,22,0.00,0,,340
2012-10-31,46,34,23,27,20,12,86,57,25,30.02,29.98,29.92,10,10,4,15,7,18,0.00,1,Snow,327